QPF
0.03 0.03 0.04 0.04 0.04 0.05 0.06 0.07 0.07 0.06 0.04 0.04 0.05 0.06 0.06 0.07 0.06 0.04 0.03 0.01 0.01 0.00 0.00 0.00 0.00 0.00 0.00 0.00 0.01 0.02 0.02 0.02 0.02 0.05 0.07 0.08 0.13 0.15
0.03 0.04 0.04 0.04 0.05 0.05 0.05 0.06 0.06 0.06 0.05 0.04 0.04 0.04 0.05 0.06 0.06 0.07 0.05 0.03 0.02 0.01 0.00 0.00 0.00 0.00 0.00 0.00 0.00 0.01 0.01 0.02 0.02 0.03 0.05 0.06 0.08 0.11
0.03 0.03 0.04 0.04 0.04 0.04 0.05 0.06 0.06 0.06 0.06 0.05 0.05 0.05 0.06 0.08 0.09 0.08 0.07 0.05 0.03 0.02 0.01 0.00 0.00 0.00 0.00 0.00 0.00 0.00 0.01 0.01 0.01 0.02 0.03 0.04 0.06 0.08
0.03 0.03 0.03 0.03 0.04 0.04 0.05 0.04 0.04 0.06 0.06 0.07 0.06 0.05 0.06 0.08 0.09 0.09 0.07 0.05 0.03 0.02 0.01 0.00 0.00 0.00 0.00 0.00 0.00 0.00 0.00 0.01 0.01 0.01 0.01 0.02 0.04 0.07
0.03 0.03 0.03 0.03 0.04 0.06 0.06 0.05 0.04 0.04 0.05 0.06 0.06 0.06 0.06 0.07 0.09 0.11 0.11 0.09 0.06 0.03 0.02 0.01 0.01 0.00 0.00 0.00 0.00 0.00 0.00 0.01 0.01 0.01 0.01 0.01 0.02 0.04
0.03 0.03 0.03 0.03 0.05 0.07 0.07 0.07 0.06 0.07 0.07 0.07 0.08 0.08 0.07 0.08 0.11 0.11 0.10 0.09 0.07 0.05 0.04 0.02 0.01 0.01 0.00 0.00 0.00 0.00 0.01 0.01 0.01 0.01 0.01 0.01 0.02 0.03
0.05 0.04 0.03 0.03 0.03 0.05 0.07 0.07 0.06 0.07 0.08 0.10 0.10 0.09 0.08 0.09 0.10 0.09 0.09 0.08 0.07 0.07 0.05 0.03 0.03 0.03 0.02 0.01 0.01 0.00 0.01 0.01 0.01 0.01 0.02 0.02 0.02 0.02
0.05 0.04 0.03 0.03 0.02 0.02 0.02 0.03 0.03 0.04 0.05 0.06 0.08 0.08 0.07 0.08 0.08 0.08 0.09 0.08 0.07 0.07 0.06 0.05 0.04 0.03 0.03 0.03 0.02 0.01 0.01 0.02 0.02 0.02 0.02 0.02 0.03 0.02
0.04 0.04 0.03 0.02 0.02 0.02 0.03 0.04 0.04 0.04 0.04 0.04 0.05 0.05 0.06 0.07 0.07 0.07 0.07 0.07 0.07 0.07 0.08 0.07 0.06 0.05 0.03 0.02 0.02 0.01 0.01 0.01 0.02 0.02 0.02 0.03 0.03 0.03
0.03 0.03 0.02 0.02 0.02 0.02 0.02 0.03 0.03 0.03 0.03 0.04 0.04 0.05 0.04 0.05 0.06 0.06 0.07 0.07 0.06 0.06 0.08 0.07 0.06 0.06 0.03 0.02 0.02 0.02 0.02 0.02 0.02 0.02 0.02 0.02 0.03 0.04
0.03 0.02 0.02 0.02 0.01 0.01 0.02 0.03 0.02 0.03 0.02 0.02 0.02 0.03 0.03 0.03 0.04 0.06 0.08 0.11 0.09 0.06 0.08 0.06 0.05 0.05 0.06 0.04 0.02 0.02 0.03 0.03 0.02 0.03 0.03 0.02 0.03 0.04
0.02 0.02 0.02 0.02 0.02 0.01 0.02 0.02 0.02 0.02 0.02 0.02 0.03 0.04 0.05 0.05 0.05 0.07 0.08 0.11 0.09 0.06 0.06 0.06 0.05 0.06 0.08 0.07 0.04 0.04 0.04 0.04 0.04 0.03 0.04 0.04 0.03 0.03
0.02 0.01 0.02 0.02 0.02 0.02 0.02 0.02 0.02 0.02 0.02 0.02 0.03 0.04 0.05 0.06 0.06 0.07 0.08 0.10 0.09 0.08 0.06 0.07 0.06 0.06 0.09 0.08 0.05 0.04 0.04 0.04 0.05 0.05 0.04 0.05 0.04 0.04
0.03 0.03 0.03 0.03 0.03 0.02 0.02 0.02 0.02 0.02 0.03 0.03 0.04 0.04 0.05 0.06 0.05 0.06 0.09 0.10 0.09 0.09 0.08 0.09 0.09 0.08 0.08 0.07 0.06 0.05 0.05 0.05 0.06 0.06 0.06 0.05 0.04 0.04
0.03 0.03 0.03 0.03 0.02 0.03 0.03 0.02 0.02 0.02 0.03 0.04 0.04 0.04 0.05 0.06 0.06 0.06 0.09 0.10 0.07 0.06 0.07 0.09 0.11 0.10 0.09 0.08 0.06 0.07 0.07 0.07 0.08 0.08 0.08 0.06 0.04 0.04
0.02 0.02 0.02 0.02 0.02 0.02 0.03 0.03 0.03 0.03 0.04 0.04 0.04 0.03 0.03 0.05 0.06 0.07 0.08 0.07 0.06 0.06 0.06 0.08 0.10 0.11 0.10 0.09 0.07 0.07 0.07 0.07 0.08 0.08 0.09 0.09 0.07 0.05
0.02 0.02 0.02 0.02 0.02 0.03 0.05 0.05 0.04 0.03 0.03 0.03 0.03 0.03 0.03 0.04 0.05 0.06 0.07 0.05 0.05 0.05 0.06 0.08 0.10 0.10 0.11 0.09 0.07 0.07 0.07 0.08 0.10 0.10 0.09 0.08 0.07 0.07
0.02 0.02 0.02 0.03 0.04 0.04 0.03 0.03 0.02 0.02 0.02 0.03 0.03 0.03 0.02 0.03 0.04 0.05 0.06 0.05 0.05 0.04 0.04 0.05 0.06 0.09 0.10 0.10 0.09 0.09 0.08 0.09 0.10 0.10 0.09 0.07 0.07 0.07
0.01 0.01 0.02 0.03 0.03 0.02 0.02 0.02 0.01 0.01 0.02 0.02 0.02 0.02 0.02 0.02 0.04 0.05 0.07 0.06 0.05 0.05 0.04 0.04 0.05 0.09 0.11 0.11 0.09 0.09 0.09 0.09 0.09 0.10 0.10 0.08 0.07 0.08
0.01 0.01 0.01 0.02 0.02 0.01 0.01 0.01 0.01 0.02 0.03 0.03 0.03 0.03 0.02 0.03 0.03 0.05 0.07 0.07 0.05 0.05 0.05 0.04 0.06 0.08 0.10 0.11 0.11 0.10 0.09 0.09 0.09 0.11 0.10 0.08 0.07 0.07
0.00 0.00 0.01 0.02 0.02 0.02 0.01 0.01 0.01 0.01 0.02 0.05 0.05 0.04 0.03 0.03 0.03 0.04 0.05 0.06 0.06 0.05 0.06 0.07 0.08 0.09 0.08 0.09 0.10 0.11 0.09 0.09 0.09 0.10 0.09 0.08 0.08 0.08
0.01 0.01 0.01 0.01 0.01 0.01 0.01 0.01 0.01 0.01 0.01 0.02 0.02 0.02 0.02 0.02 0.02 0.03 0.04 0.05 0.06 0.06 0.05 0.06 0.08 0.09 0.09 0.08 0.09 0.10 0.09 0.07 0.07 0.06 0.07 0.07 0.06 0.06
0.01 0.01 0.01 0.01 0.00 0.00 0.01 0.01 0.01 0.01 0.01 0.01 0.01 0.01 0.01 0.01 0.02 0.02 0.03 0.04 0.04 0.05 0.06 0.06 0.07 0.07 0.08 0.07 0.06 0.06 0.05 0.04 0.04 0.04 0.05 0.05 0.04 0.03
MSLP
1011.07 1010.90 1010.70 1010.46 1010.18 1009.87 1009.55 1009.23 1008.93 1008.66 1008.44 1008.28 1008.17 1008.12 1008.13 1008.19 1008.30 1008.43 1008.60 1008.78 1008.97 1009.17 1009.37 1009.56 1009.76 1009.95 1010.14 1010.35 1010.56 1010.78 1011.01 1011.24 1011.48 1011.72 1011.95 1012.18 1012.42 1012.66
1010.56 1010.36 1010.12 1009.86 1009.57 1009.27 1008.96 1008.65 1008.35 1008.08 1007.84 1007.65 1007.50 1007.41 1007.37 1007.37 1007.41 1007.48 1007.58 1007.71 1007.86 1008.02 1008.20 1008.40 1008.60 1008.82 1009.05 1009.29 1009.54 1009.80 1010.06 1010.33 1010.58 1010.83 1011.08 1011.32 1011.56 1011.81
1009.94 1009.69 1009.43 1009.17 1008.90 1008.62 1008.34 1008.06 1007.78 1007.52 1007.28 1007.07 1006.90 1006.76 1006.66 1006.58 1006.56 1006.56 1006.59 1006.65 1006.74 1006.86 1007.00 1007.17 1007.37 1007.60 1007.86 1008.14 1008.44 1008.74 1009.05 1009.35 1009.64 1009.92 1010.18 1010.43 1010.68 1010.94
1009.27 1008.99 1008.72 1008.46 1008.20 1007.96 1007.72 1007.47 1007.23 1006.99 1006.76 1006.54 1006.34 1006.17 1006.02 1005.89 1005.79 1005.72 1005.68 1005.68 1005.70 1005.75 1005.85 1005.98 1006.16 1006.37 1006.64 1006.94 1007.27 1007.62 1007.97 1008.32 1008.66 1008.96 1009.26 1009.53 1009.79 1010.06
1008.69 1008.37 1008.08 1007.82 1007.58 1007.36 1007.16 1006.95 1006.74 1006.52 1006.30 1006.08 1005.86 1005.65 1005.46 1005.29 1005.14 1005.02 1004.92 1004.85 1004.81 1004.80 1004.82 1004.90 1005.02 1005.20 1005.44 1005.73 1006.07 1006.44 1006.84 1007.23 1007.61 1007.97 1008.30 1008.59 1008.87 1009.15
1008.28 1007.92 1007.61 1007.34 1007.11 1006.91 1006.72 1006.52 1006.32 1006.12 1005.89 1005.66 1005.43 1005.20 1004.98 1004.79 1004.61 1004.46 1004.32 1004.20 1004.10 1004.02 1003.97 1003.97 1004.01 1004.12 1004.30 1004.55 1004.87 1005.24 1005.65 1006.08 1006.50 1006.91 1007.28 1007.61 1007.92 1008.20
1008.12 1007.73 1007.39 1007.10 1006.86 1006.64 1006.44 1006.24 1006.02 1005.80 1005.56 1005.30 1005.04 1004.80 1004.56 1004.36 1004.17 1004.00 1003.85 1003.70 1003.56 1003.42 1003.30 1003.20 1003.15 1003.16 1003.25 1003.42 1003.69 1004.03 1004.43 1004.87 1005.33 1005.77 1006.19 1006.57 1006.91 1007.22
1008.20 1007.79 1007.42 1007.11 1006.83 1006.58 1006.35 1006.10 1005.84 1005.57 1005.28 1004.97 1004.68 1004.40 1004.16 1003.95 1003.77 1003.60 1003.45 1003.30 1003.13 1002.95 1002.76 1002.57 1002.42 1002.31 1002.29 1002.36 1002.54 1002.82 1003.19 1003.62 1004.10 1004.58 1005.04 1005.46 1005.85 1006.19
1008.48 1008.06 1007.67 1007.32 1007.01 1006.71 1006.41 1006.10 1005.76 1005.41 1005.04 1004.67 1004.32 1004.00 1003.73 1003.52 1003.34 1003.20 1003.07 1002.92 1002.75 1002.54 1002.30 1002.04 1001.78 1001.56 1001.42 1001.37 1001.45 1001.65 1001.96 1002.37 1002.84 1003.34 1003.84 1004.31 1004.73 1005.10
1008.88 1008.45 1008.05 1007.68 1007.31 1006.96 1006.59 1006.19 1005.76 1005.30 1004.82 1004.36 1003.93 1003.56 1003.26 1003.02 1002.86 1002.73 1002.63 1002.51 1002.35 1002.13 1001.86 1001.54 1001.20 1000.89 1000.63 1000.47 1000.44 1000.55 1000.80 1001.16 1001.61 1002.11 1002.63 1003.12 1003.57 1003.96
1009.29 1008.87 1008.46 1008.06 1007.66 1007.25 1006.80 1006.32 1005.78 1005.22 1004.63 1004.06 1003.54 1003.09 1002.74 1002.48 1002.30 1002.19 1002.11 1002.02 1001.88 1001.68 1001.40 1001.05 1000.66 1000.27 999.93 999.68 999.54 999.56 999.73 1000.03 1000.44 1000.92 1001.42 1001.92 1002.38 1002.79
1009.65 1009.23 1008.82 1008.40 1007.97 1007.52 1007.01 1006.44 1005.82 1005.15 1004.46 1003.79 1003.17 1002.64 1002.22 1001.92 1001.72 1001.60 1001.54 1001.46 1001.35 1001.17 1000.90 1000.55 1000.14 999.71 999.30 998.98 998.77 998.70 998.79 999.02 999.38 999.80 1000.28 1000.75 1001.19 1001.59
1009.92 1009.50 1009.07 1008.64 1008.20 1007.71 1007.16 1006.55 1005.86 1005.12 1004.35 1003.59 1002.88 1002.28 1001.78 1001.42 1001.19 1001.05 1000.97 1000.91 1000.81 1000.65 1000.40 1000.05 999.64 999.20 998.76 998.39 998.12 997.98 998.00 998.16 998.43 998.79 999.20 999.63 1000.03 1000.40
1010.10 1009.66 1009.22 1008.78 1008.32 1007.82 1007.26 1006.63 1005.92 1005.14 1004.32 1003.52 1002.75 1002.07 1001.51 1001.09 1000.80 1000.62 1000.51 1000.43 1000.33 1000.17 999.92 999.59 999.19 998.74 998.30 997.90 997.58 997.40 997.34 997.42 997.61 997.90 998.23 998.58 998.93 999.24
1010.22 1009.73 1009.27 1008.82 1008.36 1007.88 1007.34 1006.72 1006.02 1005.25 1004.44 1003.61 1002.82 1002.10 1001.49 1001.01 1000.66 1000.41 1000.24 1000.12 999.98 999.79 999.54 999.20 998.80 998.35 997.90 997.48 997.14 996.90 996.78 996.79 996.91 997.10 997.35 997.63 997.91 998.17
1010.30 1009.77 1009.28 1008.82 1008.37 1007.91 1007.41 1006.84 1006.20 1005.48 1004.70 1003.91 1003.12 1002.40 1001.76 1001.22 1000.80 1000.47 1000.22 1000.01 999.80 999.56 999.26 998.89 998.47 998.01 997.54 997.10 996.74 996.47 996.30 996.24 996.29 996.41 996.58 996.79 997.00 997.22
1010.40 1009.82 1009.30 1008.83 1008.40 1007.98 1007.53 1007.03 1006.47 1005.84 1005.14 1004.40 1003.67 1002.95 1002.30 1001.72 1001.22 1000.81 1000.46 1000.14 999.82 999.48 999.10 998.66 998.19 997.70 997.20 996.74 996.35 996.05 995.84 995.74 995.73 995.79 995.91 996.06 996.24 996.43
1010.55 1009.94 1009.39 1008.92 1008.51 1008.12 1007.74 1007.32 1006.84 1006.31 1005.71 1005.06 1004.38 1003.71 1003.05 1002.44 1001.88 1001.37 1000.90 1000.44 999.99 999.52 999.02 998.49 997.94 997.38 996.84 996.36 995.94 995.61 995.38 995.25 995.21 995.24 995.34 995.47 995.63 995.81
1010.78 1010.16 1009.60 1009.14 1008.74 1008.39 1008.05 1007.70 1007.31 1006.87 1006.37 1005.80 1005.20 1004.56 1003.91 1003.27 1002.64 1002.03 1001.44 1000.84 1000.24 999.62 998.99 998.34 997.69 997.05 996.46 995.93 995.48 995.14 994.90 994.76 994.72 994.75 994.85 994.99 995.17 995.38
1011.13 1010.51 1009.97 1009.51 1009.12 1008.79 1008.49 1008.19 1007.86 1007.48 1007.05 1006.56 1006.00 1005.40 1004.75 1004.08 1003.39 1002.69 1001.97 1001.24 1000.49 999.72 998.95 998.18 997.42 996.70 996.05 995.48 995.02 994.67 994.43 994.31 994.28 994.34 994.46 994.64 994.85 995.10
1011.60 1011.02 1010.50 1010.05 1009.67 1009.35 1009.06 1008.77 1008.46 1008.12 1007.72 1007.26 1006.73 1006.14 1005.48 1004.78 1004.03 1003.24 1002.42 1001.56 1000.68 999.79 998.89 998.00 997.16 996.37 995.67 995.07 994.60 994.25 994.03 993.93 993.94 994.03 994.20 994.42 994.68 994.98
1012.20 1011.68 1011.20 1010.77 1010.39 1010.05 1009.74 1009.43 1009.11 1008.75 1008.34 1007.87 1007.33 1006.72 1006.04 1005.30 1004.50 1003.64 1002.74 1001.78 1000.81 999.82 998.82 997.86 996.95 996.12 995.39 994.78 994.31 993.98 993.78 993.71 993.76 993.89 994.10 994.36 994.66 994.99
1012.92 1012.47 1012.04 1011.63 1011.24 1010.88 1010.52 1010.16 1009.78 1009.37 1008.91 1008.39 1007.81 1007.16 1006.44 1005.65 1004.80 1003.89 1002.93 1001.93 1000.90 999.85 998.82 997.83 996.90 996.06 995.32 994.72 994.27 993.96 993.79 993.75 993.82 993.98 994.21 994.49 994.81 995.15
Thickness
5629 5626 5623 5623 5622 5620 5617 5614 5612 5612 5617 5620 5620 5621 5620 5620 5619 5620 5621 5620 5618 5618 5618 5619 5620 5621 5623 5624 5626 5629 5631 5634 5635 5637 5638 5640 5641 5644
5622 5619 5617 5617 5616 5613 5611 5610 5608 5605 5607 5613 5612 5613 5611 5612 5612 5612 5613 5612 5612 5612 5612 5613 5613 5614 5616 5617 5619 5622 5624 5626 5628 5630 5632 5633 5635 5637
5617 5615 5612 5610 5609 5608 5607 5605 5603 5601 5600 5604 5606 5606 5603 5602 5604 5604 5605 5607 5608 5607 5607 5606 5607 5608 5610 5611 5613 5615 5617 5619 5621 5623 5625 5627 5629 5631
5612 5609 5607 5605 5602 5601 5599 5598 5596 5595 5594 5595 5597 5598 5597 5597 5596 5596 5599 5602 5602 5602 5601 5601 5601 5602 5603 5604 5606 5608 5610 5612 5614 5616 5618 5620 5622 5624
5607 5604 5601 5598 5596 5595 5592 5591 5590 5591 5589 5589 5590 5590 5590 5591 5589 5590 5592 5592 5595 5597 5596 5596 5596 5596 5597 5598 5599 5601 5603 5605 5607 5609 5611 5613 5615 5617
5602 5599 5596 5593 5589 5587 5586 5584 5583 5582 5582 5582 5583 5583 5583 5583 5582 5581 5583 5584 5586 5589 5589 5590 5590 5590 5591 5592 5593 5594 5596 5597 5600 5602 5604 5606 5608 5611
5597 5594 5591 5586 5581 5578 5577 5576 5575 5574 5574 5574 5574 5575 5575 5573 5572 5573 5573 5575 5578 5580 5581 5583 5585 5587 5587 5586 5587 5588 5590 5591 5593 5595 5597 5599 5602 5604
5591 5588 5585 5581 5576 5570 5567 5565 5563 5564 5565 5564 5566 5565 5564 5564 5563 5562 5563 5564 5567 5571 5571 5573 5577 5579 5582 5584 5583 5583 5583 5584 5586 5588 5591 5593 5595 5597
5585 5581 5579 5576 5570 5566 5563 5560 5558 5554 5551 5551 5554 5553 5554 5555 5552 5553 5553 5555 5556 5559 5560 5563 5567 5570 5574 5577 5576 5576 5577 5578 5580 5582 5584 5586 5588 5590
5579 5575 5570 5566 5562 5556 5556 5555 5553 5551 5548 5546 5545 5544 5545 5543 5542 5543 5544 5547 5550 5553 5553 5555 5559 5563 5567 5569 5568 5569 5571 5572 5574 5576 5578 5579 5581 5583
5574 5569 5563 5559 5550 5546 5547 5548 5547 5545 5543 5539 5536 5536 5534 5533 5532 5534 5537 5539 5543 5547 5548 5548 5552 5555 5559 5562 5563 5563 5564 5566 5568 5570 5571 5573 5574 5575
5570 5564 5555 5549 5542 5538 5540 5540 5539 5538 5536 5537 5535 5533 5533 5532 5527 5527 5530 5531 5534 5538 5541 5541 5544 5546 5550 5555 5557 5558 5558 5559 5561 5563 5565 5566 5567 5569
5564 5560 5553 5542 5537 5534 5531 5533 5529 5527 5530 5531 5532 5531 5529 5528 5526 5524 5523 5523 5524 5528 5532 5532 5536 5539 5541 5545 5549 5551 5553 5555 5556 5557 5558 5560 5561 5564
5557 5553 5548 5538 5534 5530 5529 5525 5522 5522 5526 5525 5524 5523 5521 5520 5519 5518 5517 5516 5517 5519 5521 5523 5526 5529 5532 5536 5540 5544 5546 5548 5550 5552 5554 5554 5555 5558
5551 5544 5539 5534 5532 5531 5525 5522 5520 5521 5520 5519 5518 5516 5514 5513 5512 5511 5512 5512 5513 5515 5517 5517 5518 5520 5523 5527 5531 5535 5538 5541 5543 5546 5548 5550 5552 5554
5548 5543 5537 5533 5530 5526 5524 5522 5519 5516 5513 5512 5511 5510 5509 5507 5507 5506 5506 5507 5509 5512 5512 5512 5512 5513 5516 5518 5522 5526 5529 5533 5536 5539 5541 5544 5546 5549
5542 5542 5539 5535 5531 5527 5523 5520 5515 5512 5509 5506 5504 5504 5503 5502 5501 5501 5500 5501 5503 5505 5507 5507 5508 5508 5510 5512 5515 5519 5523 5526 5529 5532 5534 5537 5540 5544
5538 5538 5534 5530 5526 5522 5519 5515 5511 5507 5503 5500 5498 5496 5495 5495 5494 5494 5495 5496 5497 5499 5500 5501 5501 5503 5505 5509 5508 5512 5515 5519 5522 5525 5527 5530 5533 5538
5538 5535 5530 5525 5522 5518 5514 5510 5506 5502 5498 5495 5493 5490 5489 5488 5488 5488 5489 5489 5490 5492 5493 5495 5495 5497 5500 5504 5505 5503 5507 5511 5514 5517 5521 5525 5528 5532
5536 5531 5526 5522 5518 5514 5510 5506 5502 5498 5494 5490 5487 5485 5483 5483 5482 5483 5483 5483 5483 5485 5488 5489 5490 5491 5492 5495 5497 5499 5500 5504 5508 5511 5515 5518 5523 5525
5532 5527 5522 5518 5514 5510 5506 5502 5497 5493 5490 5486 5484 5481 5480 5479 5479 5479 5479 5477 5478 5481 5483 5484 5485 5485 5488 5490 5493 5496 5497 5497 5500 5503 5508 5512 5516 5520
5528 5523 5518 5513 5509 5505 5502 5498 5494 5490 5487 5484 5481 5479 5477 5476 5476 5476 5476 5477 5477 5477 5478 5481 5483 5485 5487 5489 5491 5493 5495 5496 5496 5496 5499 5503 5508 5513
5524 5519 5514 5510 5505 5501 5498 5496 5492 5488 5484 5481 5479 5477 5475 5474 5474 5474 5474 5475 5475 5475 5477 5479 5482 5484 5486 5488 5489 5491 5493 5494 5496 5497 5496 5496 5499 5502